星链-11379 (STARLINK-11379)

导读

STARLINK-11379是美国SpaceX星链互联网星座的一员,于2024年11月25日发射入轨,旨在为全球提供低延迟、高速率的卫星互联网服务,覆盖偏远地区与网络基础设施薄弱区域。作为星链批量部署的卫星之一,它延续了该星座设计,依托低轨布局提升通信覆盖能力,服务全球用户接入互联网。

基本信息
目录编号:
62089
目录名称:
STARLINK-11379
国际标识:
2024-220B
轨道中心:
EARTH
卫星名称:
星链-11379
卫星全名:
星链-11379 (STARLINK-11379)
卫星状态:
在轨 (已飞行649 天)
发射日期:
2024-11-25 UTC
国别 :
美国 (US)
星等 :
--
轨道信息
数据来源 国际轨道数据
星历时间: 2026-09-04T20:14:33+0800
1天前
查看轨道信息
半长轴: 6734.62km
偏心率: 0.0005517
轨道倾角: 43.000°
近地点辐角 300.272°
升交点赤经 45.503°
平近点角 59.760°
近地点: 352.767km
远地点: 360.199km
周期: 91.670分钟
每日圈数: 15.708445
详细信息
固有亮度:
5
最大亮度:
2.5
卫星平台:
Starlink V1.0
覆盖范围:
全球
运营商:
太空探索技术公司
运营商所在国:
美国
制造商(研发单位):
太空探索技术公司
制造商所在国:
美国
使用方式:
暂无
卫星简介
Starlink 计划是 SpaceX 推出的全球卫星互联网项目,通过发射低轨道卫星,为全球尤其是偏远地区提供高速、低延迟的互联网服务。自 2019 年起,Starlink 已部署数千颗卫星,旨在缩小全球数字鸿沟,推动互联网普及。该项目还为军事、航空等行业提供通信支持,带来广泛经济效益。
2D轨道图
3D轨道图
轨道高度分析图
轨道倾角分析图
轨道综合分析图
查看轨道综合分析图
交会数据列表
事件ID 空间交会对象 最接近时刻(TCA) 交会距离 交会风险概率(CRP) 交会风险指数(CRI) 操作
CDM_260830-140006-200906-208921
2026-08-30T
14:00:23+0000
2.568 km
极远距离
1.43826E-6 低风险 0.38
CDM_260907-105106-003906-208921
2026-09-07T
10:51:23+0000
2.470 km
极远距离
1.066299E-6 低风险 0.36